CDT,Max TemperatureF,Mean TemperatureF,Min TemperatureF,Max Dew PointF,MeanDew PointF,Min DewpointF,Max Humidity, Mean Humidity, Min Humidity, Max Sea Level PressureIn, Mean Sea Level PressureIn, Min Sea Level PressureIn, Max VisibilityMiles, Mean VisibilityMiles, Min VisibilityMiles, Max Wind SpeedMPH, Mean Wind SpeedMPH, Max Gust SpeedMPH,PrecipitationIn, CloudCover, Events, WindDirDegrees
2013-10-1,77,58,37,56,49,33,100,64,23,29.99,29.82,29.72,10,10,10,13,6,20,0.00,0,,230
2013-10-2,77,54,31,46,37,31,100,63,19,30.11,30.01,29.90,10,10,10,8,1,,0.00,1,,136
2013-10-3,67,60,53,63,57,44,100,92,53,29.94,29.88,29.83,10,9,3,10,3,20,0.55,6,Rain-Thunderstorm,54
2013-10-4,60,58,56,60,58,57,100,99,97,30.04,29.95,29.89,10,7,1,15,6,32,0.96,8,Rain-Thunderstorm,67
2013-10-5,68,57,45,68,60,46,100,99,92,29.96,29.81,29.71,10,8,1,15,7,21,0.95,7,Rain-Thunderstorm,100
2013-10-6,56,44,33,48,40,33,100,84,45,29.76,29.72,29.68,10,9,0,8,1,,0.02,3,Fog-Rain,235
2013-10-7,66,50,35,50,43,35,100,82,35,30.05,29.91,29.75,10,9,0,12,4,17,0.03,3,Fog-Rain,284
2013-10-8,76,54,32,46,39,32,100,65,28,30.07,30.03,29.98,10,9,0,16,3,22,0.00,1,Fog,182
2013-10-9,75,57,39,50,44,40,100,68,29,30.14,30.10,30.04,10,10,10,12,4,20,0.00,0,,180
2013-10-10,74,53,32,49,41,32,100,76,30,30.14,30.07,29.99,10,10,2,9,2,16,0.00,0,,157
2013-10-11,76,58,40,54,49,40,100,71,39,30.00,29.91,29.81,10,8,0,17,3,28,0.00,2,Fog-Rain,141
2013-10-12,68,53,37,54,43,35,99,58,35,30.16,29.94,29.79,10,10,10,18,7,28,0.00,4,Rain,232
2013-10-13,60,44,28,42,33,28,100,76,31,30.41,30.34,30.17,10,10,10,9,3,16,0.00,0,,312
2013-10-14,59,42,24,41,34,25,100,72,39,30.43,30.29,30.08,10,10,0,13,3,22,0.00,1,Fog,111
2013-10-15,60,52,47,56,48,41,100,90,67,30.07,29.81,29.70,10,8,3,12,6,20,0.39,8,Rain,165
2013-10-16,50,40,30,49,43,30,100,90,70,29.93,29.86,29.75,10,9,1,9,3,16,0.00,7,,310
2013-10-17,56,43,30,44,36,30,100,86,43,29.91,29.83,29.77,10,6,0,8,1,9,0.00,6,Fog-Rain,232
2013-10-18,50,38,28,46,38,29,100,89,50,29.93,29.87,29.77,10,9,3,12,4,21,0.02,6,Rain,286
2013-10-19,49,37,25,42,33,25,100,92,58,29.87,29.76,29.69,10,10,2,12,2,20,0.05,4,Rain,226
2013-10-20,46,37,28,45,36,28,100,96,75,29.80,29.73,29.64,10,6,0,18,2,31,0.04,7,Fog-Rain,191
2013-10-21,38,34,29,35,26,18,100,70,48,29.93,29.89,29.80,10,10,2,20,10,23,0.00,7,Rain,272
2013-10-22,46,32,18,31,26,18,100,78,48,29.99,29.95,29.92,10,10,10,12,3,17,0.00,2,,293
2013-10-23,39,28,18,34,26,18,100,83,60,30.04,29.99,29.97,10,10,1,9,2,17,0.00,7,Snow,294
2013-10-24,44,34,24,27,24,21,100,65,42,30.29,30.17,30.04,10,10,10,13,6,22,0.00,7,,299
2013-10-25,53,40,28,32,28,24,100,62,37,30.31,30.12,29.78,10,10,10,17,5,26,0.00,5,,219
2013-10-26,52,42,29,36,29,25,85,55,39,30.06,29.93,29.73,10,10,10,15,9,25,0.00,6,,291
2013-10-27,59,40,21,32,28,22,100,72,30,30.09,29.94,29.81,10,10,5,14,3,21,0.00,1,,226
2013-10-28,44,36,27,31,25,22,84,62,42,30.41,30.33,30.09,10,10,10,14,8,22,0.00,4,,54
2013-10-29,49,36,23,37,29,22,100,77,53,30.41,30.28,30.11,10,10,5,10,4,,0.00,5,Rain,70
2013-10-30,55,46,38,54,47,38,100,94,82,30.11,29.94,29.71,7,5,2,8,2,,0.02,8,Rain,107
2013-10-31,53,47,41,54,49,41,100,99,95,29.70,29.45,29.34,7,3,0,14,4,20,0.06,8,Fog-Rain,276